Time,TemperatureF,DewpointF,PressureIn,WindDirection,WindDirectionDegrees,WindSpeedMPH,WindSpeedGustMPH,Humidity,HourlyPrecipIn,Conditions,Clouds,dailyrainin,SolarRadiationWatts/m^2,SoftwareType,DateUTC
2013-07-19 00:22:00,60.0,49.0,-100.00,NW,322,3.0,5.0,66,0.00,,,0.00,0.000000,,2013-07-19 06:22:00,
2013-07-19 00:33:00,60.0,49.0,-100.00,NW,322,3.0,5.0,66,0.00,,,0.00,0.000000,,2013-07-19 06:33:00,
2013-07-19 00:43:00,60.0,49.0,-100.00,NW,322,3.0,5.0,66,0.00,,,0.00,0.000000,,2013-07-19 06:43:00,
2013-07-19 00:52:00,60.0,49.0,-100.00,NW,322,3.0,5.0,66,0.00,,,0.00,0.000000,,2013-07-19 06:52:00,
2013-07-19 01:22:00,59.0,46.0,-100.00,NE,34,2.0,8.0,62,0.00,,,0.00,0.000000,,2013-07-19 07:22:00,
2013-07-19 01:32:00,59.0,46.0,-100.00,NE,34,2.0,8.0,62,0.00,,,0.00,0.000000,,2013-07-19 07:32:00,
2013-07-19 01:43:00,59.0,46.0,-100.00,NE,34,2.0,8.0,62,0.00,,,0.00,0.000000,,2013-07-19 07:43:00,
2013-07-19 01:53:00,59.0,46.0,-100.00,NE,34,2.0,8.0,62,0.00,,,0.00,0.000000,,2013-07-19 07:53:00,
2013-07-19 02:22:00,60.0,45.0,-100.00,ENE,66,3.0,6.0,57,0.00,,,-99.99,0.000000,,2013-07-19 08:22:00,
2013-07-19 02:32:00,60.0,45.0,-100.00,ENE,66,3.0,6.0,57,0.00,,,-99.99,0.000000,,2013-07-19 08:32:00,
2013-07-19 02:43:00,60.0,45.0,-100.00,ENE,66,3.0,6.0,57,0.00,,,-99.99,0.000000,,2013-07-19 08:43:00,
2013-07-19 02:52:00,60.0,45.0,-100.00,ENE,66,3.0,6.0,57,0.00,,,-99.99,0.000000,,2013-07-19 08:52:00,
2013-07-19 03:22:00,58.0,44.0,-100.00,NW,310,4.0,7.0,59,0.00,,,-99.99,0.000000,,2013-07-19 09:22:00,
2013-07-19 03:32:00,58.0,44.0,-100.00,NW,310,4.0,7.0,59,0.00,,,-99.99,0.000000,,2013-07-19 09:32:00,
2013-07-19 03:43:00,58.0,44.0,-100.00,NW,310,4.0,7.0,59,0.00,,,-99.99,0.000000,,2013-07-19 09:43:00,
2013-07-19 03:52:00,58.0,44.0,-100.00,NW,310,4.0,7.0,59,0.00,,,-99.99,0.000000,,2013-07-19 09:52:00,
2013-07-19 04:22:00,57.0,43.0,-100.00,SE,136,2.0,6.0,60,0.00,,,-99.99,0.000000,,2013-07-19 10:22:00,
2013-07-19 04:32:00,57.0,43.0,-100.00,SE,136,2.0,6.0,60,0.00,,,-99.99,0.000000,,2013-07-19 10:32:00,
2013-07-19 04:43:00,57.0,43.0,-100.00,SE,136,2.0,6.0,60,0.00,,,-99.99,0.000000,,2013-07-19 10:43:00,
2013-07-19 04:52:00,57.0,43.0,-100.00,SE,136,2.0,6.0,60,0.00,,,-99.99,0.000000,,2013-07-19 10:52:00,
2013-07-19 05:22:00,58.0,42.0,-100.00,North,6,4.0,7.0,56,0.00,,,0.00,0.000000,,2013-07-19 11:22:00,
2013-07-19 05:33:00,58.0,42.0,-100.00,North,6,4.0,7.0,56,0.00,,,0.00,0.000000,,2013-07-19 11:33:00,
2013-07-19 05:43:00,58.0,42.0,-100.00,North,6,4.0,7.0,56,0.00,,,0.00,0.000000,,2013-07-19 11:43:00,
2013-07-19 05:52:00,58.0,42.0,-100.00,North,6,4.0,7.0,56,0.00,,,0.00,0.000000,,2013-07-19 11:52:00,
2013-07-19 06:22:00,57.0,43.0,-100.00,SSW,195,1.0,5.0,59,0.00,,,0.00,0.000000,,2013-07-19 12:22:00,
2013-07-19 06:33:00,57.0,43.0,-100.00,SSW,195,1.0,5.0,59,0.00,,,0.00,0.000000,,2013-07-19 12:33:00,
2013-07-19 06:43:00,57.0,43.0,-100.00,SSW,195,1.0,5.0,59,0.00,,,0.00,0.000000,,2013-07-19 12:43:00,
2013-07-19 06:52:00,57.0,43.0,-100.00,SSW,195,1.0,5.0,59,0.00,,,0.00,0.000000,,2013-07-19 12:52:00,
2013-07-19 09:22:00,68.0,49.0,-100.00,South,187,3.0,4.0,51,0.00,,,0.00,384.000000,,2013-07-19 15:22:00,
2013-07-19 09:32:00,68.0,49.0,-100.00,South,187,3.0,4.0,51,0.00,,,0.00,384.000000,,2013-07-19 15:32:00,
2013-07-19 09:43:00,68.0,49.0,-100.00,South,187,3.0,4.0,51,0.00,,,0.00,384.000000,,2013-07-19 15:43:00,
2013-07-19 09:52:00,68.0,49.0,-100.00,South,187,3.0,4.0,51,0.00,,,0.00,384.000000,,2013-07-19 15:52:00,
2013-07-19 10:22:00,70.0,50.0,-100.00,WSW,253,5.0,7.0,49,0.00,,,0.00,573.000000,,2013-07-19 16:22:00,
2013-07-19 10:32:00,70.0,50.0,-100.00,WSW,253,5.0,7.0,49,0.00,,,0.00,573.000000,,2013-07-19 16:32:00,
2013-07-19 10:43:00,70.0,50.0,-100.00,WSW,253,5.0,7.0,49,0.00,,,0.00,573.000000,,2013-07-19 16:43:00,
2013-07-19 10:52:00,70.0,50.0,-100.00,WSW,253,5.0,7.0,49,0.00,,,0.00,573.000000,,2013-07-19 16:52:00,
2013-07-19 11:22:00,73.0,50.0,-100.00,South,174,7.0,9.0,44,0.00,,,0.00,743.000000,,2013-07-19 17:22:00,
2013-07-19 11:32:00,73.0,50.0,-100.00,South,174,7.0,9.0,44,0.00,,,0.00,743.000000,,2013-07-19 17:32:00,
2013-07-19 11:43:00,73.0,50.0,-100.00,South,174,7.0,9.0,44,0.00,,,0.00,743.000000,,2013-07-19 17:43:00,
2013-07-19 11:52:00,73.0,50.0,-100.00,South,174,7.0,9.0,44,0.00,,,0.00,743.000000,,2013-07-19 17:52:00,
2013-07-19 12:32:00,74.0,49.0,-100.00,South,189,6.0,12.0,41,0.00,,,0.00,859.000000,,2013-07-19 18:32:00,
2013-07-19 12:42:00,74.0,49.0,-100.00,South,189,6.0,12.0,41,0.00,,,0.00,859.000000,,2013-07-19 18:42:00,
2013-07-19 12:52:00,74.0,49.0,-100.00,South,189,6.0,12.0,41,0.00,,,0.00,859.000000,,2013-07-19 18:52:00,
2013-07-19 13:21:00,69.0,55.0,-100.00,WNW,296,3.0,16.0,62,0.11,,,0.11,386.000000,,2013-07-19 19:21:00,
2013-07-19 13:32:00,69.0,55.0,-100.00,WNW,296,3.0,16.0,62,0.11,,,0.11,386.000000,,2013-07-19 19:32:00,
2013-07-19 13:43:00,69.0,55.0,-100.00,WNW,296,3.0,16.0,62,0.11,,,0.11,386.000000,,2013-07-19 19:43:00,
2013-07-19 13:52:00,69.0,55.0,-100.00,WNW,296,3.0,16.0,62,0.11,,,0.11,386.000000,,2013-07-19 19:52:00,
2013-07-19 14:22:00,76.0,51.0,-100.00,SW,224,10.0,19.0,41,0.00,,,0.11,1010.000000,,2013-07-19 20:22:00,
2013-07-19 14:33:00,76.0,51.0,-100.00,SW,224,10.0,19.0,41,0.00,,,0.11,1010.000000,,2013-07-19 20:33:00,
2013-07-19 18:32:00,76.0,44.0,-100.00,NNE,16,9.0,18.0,32,-99.99,,,0.11,579.000000,,2013-07-20 00:32:00,
2013-07-19 18:43:00,76.0,44.0,-100.00,NNE,16,9.0,18.0,32,-99.99,,,0.11,579.000000,,2013-07-20 00:43:00,
2013-07-19 19:22:00,73.0,48.0,-100.00,NNE,12,7.0,18.0,41,0.00,,,0.11,426.000000,,2013-07-20 01:22:00,
2013-07-19 19:32:00,73.0,48.0,-100.00,NNE,12,7.0,18.0,41,0.00,,,0.11,426.000000,,2013-07-20 01:32:00,
2013-07-19 19:52:00,73.0,48.0,-100.00,NNE,12,7.0,18.0,41,0.00,,,0.11,426.000000,,2013-07-20 01:52:00,
2013-07-19 20:22:00,68.0,46.0,-100.00,NE,39,8.0,14.0,45,0.00,,,0.11,46.000000,,2013-07-20 02:22:00,
2013-07-19 20:33:00,68.0,46.0,-100.00,NE,39,8.0,14.0,45,0.00,,,0.11,46.000000,,2013-07-20 02:33:00,
2013-07-19 20:43:00,68.0,46.0,-100.00,NE,39,8.0,14.0,45,0.00,,,0.11,46.000000,,2013-07-20 02:43:00,
2013-07-19 20:52:00,68.0,46.0,-100.00,NE,39,8.0,14.0,45,0.00,,,0.11,46.000000,,2013-07-20 02:52:00,
2013-07-19 21:22:00,65.0,46.0,-100.00,ESE,111,5.0,15.0,50,0.00,,,0.11,2.000000,,2013-07-20 03:22:00,
2013-07-19 21:32:00,65.0,46.0,-100.00,ESE,111,5.0,15.0,50,0.00,,,0.11,2.000000,,2013-07-20 03:32:00,
2013-07-19 21:44:00,65.0,46.0,-100.00,ESE,111,5.0,15.0,50,0.00,,,0.11,2.000000,,2013-07-20 03:44:00,
2013-07-19 21:53:00,65.0,46.0,-100.00,ESE,111,5.0,15.0,50,0.00,,,0.11,2.000000,,2013-07-20 03:53:00,
2013-07-19 22:22:00,62.0,49.0,-100.00,SW,235,2.0,8.0,62,0.00,,,0.11,0.000000,,2013-07-20 04:22:00,
2013-07-19 22:33:00,62.0,49.0,-100.00,SW,235,2.0,8.0,62,0.00,,,0.11,0.000000,,2013-07-20 04:33:00,
2013-07-19 22:44:00,62.0,49.0,-100.00,SW,235,2.0,8.0,62,0.00,,,0.11,0.000000,,2013-07-20 04:44:00,
2013-07-19 22:52:00,62.0,49.0,-100.00,SW,235,2.0,8.0,62,0.00,,,0.11,0.000000,,2013-07-20 04:52:00,
2013-07-19 23:22:00,59.0,51.0,-100.00,NW,304,2.0,4.0,74,0.00,,,0.11,0.000000,,2013-07-20 05:22:00,
2013-07-19 23:32:00,59.0,51.0,-100.00,NW,304,2.0,4.0,74,0.00,,,0.11,0.000000,,2013-07-20 05:32:00,
2013-07-19 23:52:00,59.0,51.0,-100.00,NW,304,2.0,4.0,74,0.00,,,0.11,0.000000,,2013-07-20 05:52:00,